Voltar ao catálogo

QIANFAN-87

AtivoComunicaçõesPO
NORAD 63173·PAYLOAD·🇨🇳 China

Lançado Mar 11, 2025 de Wenchang Space Launch Site

Loading…

Próximas Passagens (próximas 24 horas)

TLE

AtualizadoSource: Space-Track

Época: Sep 14, 2026, 13:26 UTC

1 63173U 25046Q   26257.55977249  .00000011  00000-0 -19727-5 0  9991
2 63173  88.9650 291.2560 0013213  56.4937 303.7474 13.51031972 84728

Acompanhe QIANFAN-87 em tempo real com AllMySat

Download on the App Store